[[{"header":{"parameterUnit":"m.s-1","parameterCategory":1,"la1":30.2991,"la2":30.254,"lo1":-89.0895,"lo2":-89.0444,"dy":0.0017,"dx":0.0017,"nx":28,"ny":28,"refTime":"2024-07-28T03:00:00:Z","depth":0,"parameterNumber":2,"parameterNumberName":"U-component_of_WINDS"},"data":[0,0,0,0,0,0,0,0,0,0,0,0,0,0,0,0,0,0,0,0,0,0,0,0,0,0,0,0,0,0,0,0,0,0,0,0,0,0,0,0,0,0,0,0,0,0,0,0,0,0,0,0,0,0,0,0,0,0,1.5303,1.5303,0,1.5297,1.5297,1.5297,1.525,1.5249,1.5248,1.5247,1.5241,1.5242,1.5243,0,0,0,0,0,0,0,0,0,0,0,0,0,1.5275,1.5275,1.5303,1.5303,1.5303,1.5297,1.5297,1.5297,1.5251,1.5249,1.5248,1.5247,1.5241,1.5242,1.5243,0,0,0,0,0,0,0,0,0,0,0,0,0,1.528,1.5276,1.5303,1.5279,1.5277,1.5297,1.5297,1.5297,1.5251,1.5249,1.5247,1.5246,1.5241,1.5242,1.5243,1.5286,0,0,1.5247,1.5248,0,0,0,0,0,0,0,0,1.5279,1.5281,1.5283,1.5281,1.5279,1.5273,1.5284,1.5293,1.5251,1.5261,1.5247,1.5245,1.5253,1.5253,1.5256,1.5285,1.5285,1.5248,1.5248,1.5249,1.5249,0,0,0,0,0,0,0,1.5279,1.5281,1.5301,1.5283,1.528,1.5269,1.5267,1.5286,1.5267,1.526,1.5257,1.5256,1.5252,1.5255,1.5255,1.5285,1.5248,1.5249,1.525,1.525,1.5346,1.5347,0,0,0,0,0,0,1.5282,1.5281,1.5301,1.53,1.5275,1.527,1.5269,1.5276,1.5266,1.5263,1.5258,1.5254,1.5253,1.5254,1.5255,1.5301,1.5249,1.525,1.5251,1.5344,1.5346,1.5348,0,0,0,0,0,0,1.5282,1.5284,1.5301,1.529,1.5291,1.5273,1.5281,1.5277,1.528,1.5265,1.5261,1.5264,1.5252,1.5253,1.5278,1.5301,1.5251,1.5252,1.5342,1.5345,1.5347,1.5396,0,0,0,0,0,0,1.5281,1.5285,1.5301,1.529,1.5292,1.5324,1.5283,1.5278,1.5282,1.5278,1.527,1.5267,1.5251,1.5276,1.5279,1.5302,1.5253,1.534,1.5343,1.5346,1.5392,1.54,1.5407,0,0,0,0,0,1.528,1.5316,1.5302,1.5305,1.5312,1.5326,1.5326,1.5306,1.5285,1.53,1.529,1.5267,1.5298,1.5279,1.5282,1.5305,1.5338,1.5342,1.5346,1.5389,1.5399,1.5407,0,0,0,0,0,0,1.5331,1.5314,1.5298,1.5332,1.533,1.5318,1.5337,1.5318,1.5323,1.5318,1.5293,1.5292,1.532,1.5315,1.5294,1.5344,1.5314,1.5319,1.5346,1.5355,1.5362,1.5361,1.5254,0,0,0,0,0,1.5345,1.5358,1.5343,1.5374,1.5374,1.5356,1.5361,1.5346,1.5343,1.5343,1.5334,1.5333,1.5342,1.5348,1.5356,1.5392,1.5388,1.5409,1.5417,1.5423,1.5426,1.5442,1.5451,1.5361,1.5361,1.536,0,0,1.5377,1.5369,1.5379,1.5384,1.5381,1.5394,1.5356,1.5372,1.5381,1.5345,1.5367,1.5361,1.5357,1.5387,1.54,1.5384,1.5451,1.5428,1.5432,1.5433,1.5447,1.5456,1.5463,1.5363,1.5363,1.5362,0,0,1.5439,1.5436,1.5459,1.5457,1.5452,1.5439,1.5445,1.5435,1.5429,1.5451,1.5423,1.5434,1.5451,1.5448,1.5449,1.5509,1.5487,1.5512,1.5549,1.5565,1.5572,1.5578,1.5596,1.5604,1.5516,1.5516,1.5516,0,1.5478,1.5497,1.5474,1.5491,1.5493,1.5461,1.5484,1.5482,1.5481,1.5483,1.5466,1.5484,1.548,1.5507,1.5521,1.5524,1.5528,1.5512,1.5573,1.5578,1.5584,1.5601,1.5609,1.5519,1.5519,1.5519,1.5518,0,1.5543,1.5557,1.5576,1.5574,1.5578,1.5599,1.5579,1.5586,1.557,1.5559,1.5579,1.5573,1.5577,1.5583,1.5568,1.5607,1.5597,1.5577,1.5546,1.5596,1.5611,1.5618,1.5523,1.5522,1.5521,1.5521,0,0,1.5638,1.5621,1.5629,1.5626,1.5618,1.5627,1.5645,1.5648,1.5654,1.5654,1.5667,1.5681,1.5661,1.5662,1.5647,1.5661,1.5704,1.5638,1.5637,1.5648,1.5744,1.5758,1.5766,1.5691,1.5692,1.5693,1.5744,0,1.5696,1.5724,1.5704,1.5736,1.5746,1.5715,1.573,1.5726,1.5716,1.5723,1.5712,1.5721,1.5695,1.5695,1.5708,1.5697,1.5723,1.5693,1.5701,1.5702,1.5701,1.5775,1.579,1.5838,1.575,1.5751,1.5752,0,1.5767,1.5768,1.5801,1.5788,1.5791,1.5805,1.5805,1.5813,1.5807,1.5799,1.5799,1.5779,1.5794,1.5765,1.5785,1.5765,1.5767,1.5762,1.5763,1.5761,1.5729,1.5773,1.5854,1.586,1.5762,1.5761,1.576,0,1.5829,1.5839,1.5859,1.5858,1.5844,1.5854,1.5849,1.5842,1.5844,1.5844,1.5845,1.5848,1.5849,1.5851,1.5832,1.5812,1.5853,1.5823,1.5845,1.5845,1.5854,1.5853,1.5933,1.5859,1.5859,1.5859,1.5859,0,1.5895,1.5915,1.5886,1.5898,1.592,1.5896,1.5918,1.5909,1.5903,1.5912,1.5886,1.5895,1.587,1.5876,1.5862,1.5879,1.588,1.5873,1.5868,1.5874,1.5874,1.5874,1.5869,1.5861,1.586,1.586,1.586,0,1.5967,1.5949,1.5968,1.5952,1.5949,1.5965,1.5952,1.5962,1.5949,1.5961,1.5963,1.5943,1.5949,1.593,1.5934,1.5924,1.5948,1.5939,1.5949,1.5946,1.5968,1.5966,1.6049,1.6058,1.598,1.5981,1.5982,0,1.6009,1.6024,1.6009,1.6013,1.6008,1.6016,1.6017,1.5994,1.5997,1.599,1.6001,1.6004,1.6006,1.6016,1.6002,1.6004,1.5994,1.6023,1.5994,1.5998,1.5991,1.5989,1.599,1.6028,1.6029,1.603,1.6031,0,1.6084,1.6074,1.6077,1.6077,1.6079,1.6078,1.6075,1.608,1.6055,1.6059,1.6064,1.6065,1.6067,1.6071,1.6069,1.6063,1.6042,1.604,1.6045,1.605,1.6054,1.6049,1.5963,1.6038,1.6037,1.6037,1.6036,1.6036,1.6141,1.6151,1.6142,1.6146,1.6141,1.6138,1.6146,1.6134,1.6137,1.6136,1.6123,1.613,1.6122,1.6117,1.6113,1.6118,1.6105,1.6112,1.6114,1.6116,1.6118,1.6055,1.6118,1.6118,1.6118,1.6118,1.6117,0,1.6212,1.6204,1.6208,1.6204,1.6206,1.6186,1.6181,1.6185,1.6191,1.6185,1.6187,1.6191,1.6194,1.6179,1.6179,1.6186,1.6176,1.6187,1.6185,1.6183,1.6132,1.6126,1.6194,1.6194,1.6194,1.6194,1.6194,1.6194,1.625,1.6265,1.6254,1.6266,1.6258,1.6264,1.6262,1.6259,1.6254,1.626,1.6261,1.6252,1.6242,1.6241,1.6242,1.6237,1.6238,1.6251,1.6243,1.6195,1.6187,1.618,1.6175,1.6252,1.6252,1.6294,1.6294,1.6294]},{"header":{"parameterUnit":"m.s-1","parameterCategory":1,"la1":30.2991,"la2":30.254,"lo1":-89.0895,"lo2":-89.0444,"dy":0.0017,"dx":0.0017,"nx":28,"ny":28,"refTime":"2024-07-28T03:00:00:Z","depth":0,"parameterNumber":3,"parameterNumberName":"V-component_of_WINDS"},"data":[0,0,0,0,0,0,0,0,0,0,0,0,0,0,0,0,0,0,0,0,0,0,0,0,0,0,0,0,0,0,0,0,0,0,0,0,0,0,0,0,0,0,0,0,0,0,0,0,0,0,0,0,0,0,0,0,0,0,3.7656,3.7657,0,3.7759,3.776,3.7761,3.7737,3.7735,3.7733,3.7732,3.7831,3.7836,3.784,0,0,0,0,0,0,0,0,0,0,0,0,0,3.7433,3.7437,3.7656,3.7658,3.7659,3.7759,3.776,3.7762,3.7738,3.7735,3.7733,3.7731,3.783,3.7835,3.7841,0,0,0,0,0,0,0,0,0,0,0,0,0,3.7532,3.7438,3.7656,3.7659,3.766,3.7759,3.776,3.7762,3.7738,3.7735,3.7732,3.773,3.7828,3.7835,3.7841,3.7941,0,0,3.7862,3.7865,0,0,0,0,0,0,0,0,3.7526,3.754,3.7657,3.7659,3.7661,3.7733,3.7718,3.7822,3.7739,3.7708,3.7732,3.7728,3.7801,3.7809,3.7835,3.7946,3.795,3.7862,3.7867,3.7869,3.7871,0,0,0,0,0,0,0,3.752,3.7536,3.7697,3.7659,3.7661,3.7653,3.7664,3.7738,3.7769,3.7711,3.7709,3.7722,3.7801,3.7828,3.7837,3.7952,3.7862,3.7868,3.7872,3.7875,3.8148,3.8151,0,0,0,0,0,0,3.7512,3.753,3.7693,3.77,3.7585,3.766,3.7672,3.7712,3.7769,3.7775,3.7725,3.7721,3.7818,3.7829,3.784,3.796,3.7869,3.7876,3.788,3.8145,3.8148,3.8152,0,0,0,0,0,0,3.7507,3.7527,3.7689,3.7615,3.7635,3.7667,3.7712,3.7716,3.7744,3.7779,3.7784,3.7748,3.7817,3.7831,3.7916,3.7963,3.7879,3.7885,3.8141,3.8146,3.815,3.8201,0,0,0,0,0,0,3.7501,3.7525,3.7565,3.7616,3.7639,3.7766,3.7715,3.772,3.7756,3.7752,3.7802,3.7807,3.7815,3.7906,3.7923,3.7971,3.789,3.8137,3.8143,3.8149,3.8195,3.8207,3.8217,0,0,0,0,0,3.7493,3.7575,3.7568,3.7587,3.769,3.7769,3.7781,3.7791,3.776,3.7799,3.7822,3.7806,3.7956,3.7915,3.7934,3.7984,3.8134,3.8141,3.8148,3.819,3.8204,3.8216,0,0,0,0,0,0,3.7527,3.7581,3.7574,3.7675,3.7717,3.7764,3.7814,3.7806,3.7857,3.7851,3.7858,3.787,3.7956,3.7979,3.7933,3.8083,3.804,3.8051,3.8065,3.8079,3.809,3.8082,3.7896,0,0,0,0,0,3.7547,3.7608,3.7651,3.7736,3.7758,3.7782,3.7817,3.7821,3.7864,3.7882,3.791,3.7952,3.8008,3.8045,3.8099,3.8198,3.8207,3.8242,3.8252,3.8261,3.8271,3.8323,3.8338,3.8176,3.8176,3.8176,0,0,3.7587,3.7624,3.7662,3.7744,3.7777,3.7838,3.7798,3.7865,3.7909,3.7891,3.7974,3.7996,3.8043,3.8135,3.8177,3.8157,3.8318,3.827,3.8277,3.8282,3.8332,3.8347,3.8361,3.8181,3.818,3.8179,0,0,3.7692,3.7727,3.7801,3.7835,3.7887,3.7903,3.792,3.7969,3.7983,3.8067,3.8054,3.8106,3.8203,3.8237,3.8266,3.8382,3.8369,3.8399,3.8456,3.8507,3.8519,3.8531,3.8571,3.8585,3.8409,3.8409,3.8409,0,3.7735,3.7829,3.7839,3.7907,3.7942,3.793,3.8003,3.8036,3.8101,3.8125,3.8101,3.8222,3.8253,3.8352,3.838,3.8405,3.8424,3.8394,3.8517,3.8529,3.8539,3.8577,3.8592,3.8412,3.8412,3.8411,3.8411,0,3.7878,3.7943,3.7996,3.8062,3.8103,3.8173,3.8192,3.8232,3.8231,3.8249,3.8332,3.8369,3.8429,3.8453,3.8453,3.8552,3.8537,3.8515,3.8472,3.8558,3.8594,3.8608,3.8417,3.8416,3.8415,3.8414,0,0,3.8007,3.8078,3.8097,3.8126,3.8181,3.8231,3.8299,3.836,3.8393,3.8439,3.8495,3.8577,3.8557,3.8591,3.8594,3.8639,3.8726,3.8611,3.8612,3.863,3.8836,3.8851,3.8868,3.8718,3.8721,3.8723,3.8831,0,3.8116,3.824,3.825,3.836,3.8419,3.8408,3.8467,3.8506,3.8524,3.8575,3.8594,3.8652,3.8621,3.8641,3.8685,3.8706,3.8767,3.8699,3.8768,3.8771,3.8756,3.8887,3.8904,3.9004,3.8845,3.8848,3.885,0,3.826,3.8311,3.8427,3.8473,3.8498,3.8552,3.8608,3.8657,3.8701,3.871,3.8748,3.8744,3.8812,3.8767,3.886,3.8813,3.8841,3.8856,3.886,3.8866,3.8815,3.8895,3.9037,3.9051,3.8872,3.887,3.8869,0,3.8341,3.8438,3.852,3.8545,3.8602,3.864,3.8664,3.8705,3.874,3.8788,3.8811,3.8865,3.8895,3.8936,3.8946,3.8913,3.9038,3.8994,3.9046,3.9046,3.9073,3.9071,3.9219,3.9093,3.9093,3.9092,3.9092,0,3.846,3.8531,3.8557,3.8608,3.8686,3.8696,3.8773,3.8795,3.8832,3.8884,3.8877,3.8926,3.8938,3.8988,3.8997,3.9071,3.9085,3.9093,3.9094,3.9093,3.9092,3.9111,3.9104,3.9096,3.9096,3.9095,3.9094,0,3.8564,3.8584,3.8672,3.8719,3.8732,3.8788,3.8826,3.8873,3.889,3.8957,3.8973,3.8998,3.9057,3.9072,3.9143,3.9148,3.9235,3.9231,3.9221,3.9221,3.9272,3.9266,3.9437,3.946,3.932,3.9321,3.9322,0,3.8639,3.8693,3.8746,3.8781,3.8808,3.8866,3.8902,3.8913,3.8951,3.9004,3.9044,3.9103,3.915,3.9245,3.9268,3.9321,3.9317,3.9373,3.9324,3.9321,3.9316,3.9312,3.9317,3.9382,3.9383,3.9385,3.9386,0,3.8768,3.8776,3.8829,3.8886,3.893,3.8975,3.9018,3.9047,3.9064,3.9106,3.9167,3.9204,3.9276,3.9334,3.9387,3.941,3.94,3.9401,3.9415,3.9414,3.9406,3.941,3.9245,3.9397,3.9395,3.9395,3.9394,3.9394,3.8859,3.8906,3.8951,3.901,3.9044,3.9084,3.913,3.9153,3.9205,3.9266,3.9269,3.9335,3.9375,3.9446,3.9472,3.9522,3.9505,3.9526,3.9532,3.9536,3.954,3.9399,3.9532,3.9532,3.9531,3.9531,3.9531,0,3.8987,3.9015,3.907,3.9131,3.9177,3.9166,3.9212,3.9251,3.931,3.9349,3.9396,3.9465,3.9521,3.9549,3.9603,3.9638,3.9634,3.9651,3.9648,3.9653,3.9553,3.9535,3.9653,3.9653,3.9653,3.9653,3.9653,3.9653,3.9059,3.9139,3.9151,3.9246,3.9273,3.934,3.9367,3.9403,3.9434,3.9513,3.9559,3.9578,3.9612,3.9668,3.9718,3.9724,3.9744,3.9763,3.9767,3.9673,3.9661,3.9649,3.9631,3.9768,3.9768,3.9863,3.9864,3.9864]}]]